カタログに戻る

CZ-2D R/B

運用中SSO
NORAD 58074·ROCKET BODY·🇨🇳 China

打ち上げ Oct 15, 2023 から Jiuquan Satellite Launch Center

Loading…

次のパス (今後24時間)

TLE

最新Source: Space-Track

元期: Sep 14, 2026, 11:30 UTC

1 58074U 23159B   26257.47943408  .00000010  00000-0  19323-4 0  9998
2 58074  98.4586 267.6619 0099482  26.9826 333.6480 14.29307933152161

AllMySatでCZ-2D R/Bをリアルタイム追跡

Download on the App Store